EXPRESS-AM6

Last updated on Jan. 17, 2021, 6:29 a.m. UTC

1 40277U 14064A   21016.81924089  .00000094  00000-0  00000-0 0  9999
2 40277   0.0544 240.9945 0000797 162.8245  60.5409  1.00271790 21755
UTC
Height (km)
Latitude
Longitude
Inclination
Orbital Period
UTC large
Height (km)
Speed (km/s)
/
Latitude / Longitude
Inclination (degrees)
Orbital Period (minutes)
Azimuth
Elevation
Range (km)
Doppler Factor
iOS Compass Heading
iOS Angle

Next 30 passes for location: Hong Kong

Rise time Rise Azimuth (degrees) Set time Set Azimuth (degrees) Duration Max altitude (degrees)

No matching passes for this satellites